This is the latest recevied weather packets stored in our database for station/object DL6MM-4. If no packets are shown the sender has not sent any weather packets the latest 10 day(s).
| Time | Temp. | Humidity | Pressure | Rain* | Wind** | Luminosity | Snow |
|---|---|---|---|---|---|---|---|
| 1777900756 | 22.78° C | 51% | 1010.4 hPa | 0 mm | - | - | - |
| 1777900156 | 22.78° C | 50% | 1010.5 hPa | 0 mm | - | - | - |
| 1777899556 | 22.22° C | 54% | 1010.6 hPa | 0 mm | - | - | - |
| 1777898956 | 22.22° C | 53% | 1010.7 hPa | 0 mm | - | - | - |
| 1777898356 | 22.78° C | 54% | 1010.7 hPa | 0 mm | - | - | - |
| 1777897756 | 23.33° C | 50% | 1010.7 hPa | 0 mm | - | - | - |
| 1777897156 | 23.89° C | 51% | 1010.7 hPa | 0 mm | - | - | - |
| 1777896556 | 23.33° C | 52% | 1010.9 hPa | 0 mm | - | - | - |
| 1777895956 | 23.33° C | 52% | 1011 hPa | 0 mm | - | - | - |
| 1777895356 | 23.33° C | 52% | 1011.1 hPa | 0 mm | - | - | - |
| 1777894756 | 23.33° C | 49% | 1011 hPa | 0 mm | - | - | - |
| 1777894156 | 22.78° C | 55% | 1011.1 hPa | 0 mm | - | - | - |
| 1777893556 | 22.22° C | 59% | 1011.2 hPa | 0 mm | - | - | - |
| 1777892956 | 21.67° C | 56% | 1011.2 hPa | 0 mm | - | - | - |
| 1777892356 | 22.22° C | 57% | 1011.2 hPa | 0 mm | - | - | - |
| 1777891756 | 21.11° C | 60% | 1011.4 hPa | 0 mm | - | - | - |
| 1777891156 | 20.56° C | 59% | 1011.4 hPa | 0 mm | - | - | - |
| 1777890556 | 21.11° C | 56% | 1011.4 hPa | 0 mm | - | - | - |
| 1777889956 | 20.56° C | 56% | 1011.6 hPa | 0 mm | - | - | - |
| 1777889356 | 20.56° C | 57% | 1011.7 hPa | 0 mm | - | - | - |
| 1777888756 | 21.11° C | 58% | 1011.7 hPa | 0 mm | - | - | - |
| 1777888156 | 20.56° C | 60% | 1011.7 hPa | 0 mm | - | - | - |
| 1777887556 | 20.56° C | 62% | 1011.9 hPa | 0 mm | - | - | - |
| 1777886956 | 19.44° C | 66% | 1011.9 hPa | 0 mm | - | - | - |
| 1777886356 | 18.89° C | 67% | 1011.9 hPa | 0 mm | - | - | - |
* Rain latest hour (hover to see other rain measurements)
** Current wind speed in m/s (hover to see current wind gust speed)